Home   Weather   Unnao   Past weeks

Flag for India Past Weather in Unnao, Uttar Pradesh, India — Yesterday and Last 2 Weeks

86 °F


Feels Like: 88 °F
Forecast: 71 / 94 °F
Wind: 2 mph from North

Location: Lucknow / Amausi

Current Time: Oct 21, 2016 at 6:45:24 PM

Latest Report: Oct 21, 2016 at 6:00 PM

Visibility: 2 mi

Pressure: 29.71 "Hg

Humidity: 52%

Dew Point: 66 °F

Location of UnnaoLocation

Past Weather in Unnao — Graph


Unnao Temperature Yesterday

Maximum temperature yesterday: 91 °F (at 1:30 PM)
Minimum temperature yesterday: 66 °F (at 5:30 AM)
Average temperature yesterday: 79 °F

High & Low Weather Summary for the Past Weeks

High95 °F (Oct 10, 2:30 PM)100% (Oct 7, 6:00 AM)29.89 "Hg (Oct 7, 6:00 AM)
Low66 °F (Oct 14, 5:30 AM)30% (Oct 14, 1:00 PM)29.62 "Hg (Oct 9, 3:00 PM)
Average82 °F68%29.74 "Hg
* Reported Oct 6 5:30 PM — Oct 21 5:30 PM, Unnao, Weather by CustomWeather, © 2016

Note: Actual official high and low records may vary slightly from our data, if they occured in-between our weather recording intervals... More about our weather records


Unnao Weather History for the Previous 24 Hours

Scroll right to see more
Time TempWeatherWind HumidityBarometerVisibility
5:30 PM
Fri, Oct 21
88 °FHaze.2 mph49%29.71 "Hg2 mi
5:00 PM90 °FHaze.2 mph36%29.68 "Hg2 mi
4:30 PM91 °FHaze.5 mph34%29.68 "Hg2 mi
4:00 PM93 °FHaze.6 mph32%29.71 "Hg2 mi
3:30 PM93 °FHaze.6 mph32%29.71 "Hg2 mi
1:30 PM93 °FHaze.6 mph32%29.74 "Hg2 mi
1:00 PM91 °FHaze.6 mph32%29.74 "Hg2 mi
12:30 PM91 °FHaze.6 mph34%29.74 "Hg2 mi
12:00 PM91 °FHaze.6 mph36%29.77 "Hg2 mi
11:30 AM90 °FHaze.5 mph38%29.80 "Hg2 mi
11:00 AM88 °FHaze.6 mph40%29.80 "Hg2 mi
10:30 AM88 °FHaze.6 mph43%29.80 "Hg2 mi
10:00 AM84 °FHaze.5 mph51%29.80 "Hg2 mi
9:30 AM82 °FHaze.5 mph51%29.80 "Hg2 mi
9:00 AM77 °FHaze.3 mph65%29.80 "Hg1 mi
8:30 AM75 °FHaze.No wind65%29.80 "Hg1 mi
8:00 AM73 °FFog.No wind74%29.77 "Hg1 mi
7:30 AM70 °FFog.No wind83%29.77 "Hg1 mi
7:00 AM68 °FMild.No wind88%29.74 "Hg1 mi
5:30 AM66 °FFog.No wind94%29.71 "Hg1 mi
5:00 AM68 °FFog.No wind88%29.71 "Hg1 mi
4:00 AM68 °FFog.No wind88%29.68 "Hg1 mi
3:00 AM70 °FFog.No wind88%29.68 "Hg1 mi
2:00 AM72 °FFog.No wind83%29.71 "Hg1 mi
1:00 AM72 °FFog.No wind83%29.71 "Hg1 mi
12:00 AM72 °FFog.No wind83%29.74 "Hg1 mi
11:00 PM
Thu, Oct 20
75 °FHaze.No wind78%29.74 "Hg1 mi
10:00 PM75 °FHaze.No wind78%29.74 "Hg1 mi
9:00 PM75 °FHaze.No wind78%29.71 "Hg1 mi
8:30 PM77 °FHaze.No wind74%29.71 "Hg1 mi
8:00 PM79 °FHaze.No wind74%29.71 "Hg1 mi
7:30 PM81 °FHaze.No wind66%29.71 "Hg1 mi
7:00 PM81 °FHaze.No wind66%29.68 "Hg1 mi
6:30 PM84 °FHaze.No wind58%29.68 "Hg1 mi
6:00 PM86 °FHaze.No wind52%29.68 "Hg1 mi
Weather by CustomWeather, © 2016

See weather overviewHow to use our weather pages